CZ-2D R/B, 53878

Orbit data source: Space-Track

CZ-2D R/B, 53878 is space debris in SSO originally from a launch on Tue, 20 Sep 2022 UTC launched from the Jiuquan Satellite Launch Center, China (JSC). Debris objects in space refer to the collection of defunct objects orbiting the Earth. Examples of debris include non-operational satellites, rocket bodies, and fragments generated from explosions, collisions, or faulty payload assembly.

Loading next visibility...
Identifier
53878, 2022-115B
Orbit
SSO
Country
Flag of CNCN / PRC
Related business
Manufacturer
BWYIC
Mission
Spacecraft
Bus & Motor
CZ-2 STAGE 2, Unknown motor
Mass
4,006 kg wet, 4,006 kg dry
Launch date (UTC)
2022-09-20 (4 years ago)
Launch vehicle
Unknown
Launch site
Jiuquan Satellite Launch Center, China (JSC)
Object type
Payload
Rocket body
Debris
Shape & HBR
Cyl, 4.5 m
Radar Cross Section
27.824 m², Large (>1 m²)

Expand to show TLE details & history
Last TLE update: 2 days ago

TLE from 2 days ago
0 CZ-2D R/B
1 53878U 22115B   26171.48384792  .00000498  00000-0  80232-4 0  9994
2 53878  98.4130 247.2751 0116915  61.7243 299.5703 14.71875045201046
Epoch: 2026-06-20T11:36Z
TLE epoch observation values (Epoch: 2026-06-20T11:36:44.460Z)
Latitude
-0.00005°
Longitude
164.39204°
Altitude
618.229 km
Speed
7.571 km/s
True Right ascension
16h 29m 06s
True Declination
0° 00' 00"
Sunlit
Object was in full shadow at epoch
Visualization orbit readout
Latitude
Unknown
Longitude
Unknown
Altitude
Unknown
Speed
Unknown
Apparent Right ascension
Unknown
Apparent Declination
Unknown
Sunlit
N/A
Visualization observer readout
Local Sidereal Time
21:30:12
Azimuth
Unknown
Elevation
Unknown
Doppler factor
Unknown
Orbital elements
Apogee altitude
734.358 km
Perigee altitude
569.969 km
Semi-major axis
7,030.3 km
Eccentricity
0.01169
Inclination
98.413°
RAAN
247.2751°
Arg. of periapsis
61.7243°
True anomaly
298.39667°
Mean anomaly
299.5703°
Eccentric anomaly
298.98433°
Mean motion
3.68199 °/min
Orbital period
97.77 mins
BSTAR
0.000080232
Loading maneuver chart data...
Computing Atmospheric mass density...
Loading historical data...
Loading historical data...
Loading historical data...
Loading historical data...
Loading historical data...
Loading historical data...
Loading historical data...
Other satellites on launch #115 in the year 2022 (2022-09-20 UTC)

Documentation

Showing up to 5 results
|